| time (UTC) | temp F | wind direction | speed knots | gust knots | rain 1hr in | rain 24hr in | rain mn in | humidity % | barometer mb |
| 20260505091129 | 49 | 247 | 0.0 | 0.0 | 0.00 | 0.00 | 0.00 | 74 | 1021.3 |
| 20260505090129 | 49 | 204 | 0.0 | 1.7 | 0.00 | 0.00 | 0.00 | 75 | 1021.4 |
| 20260505084227 | 49 | 247 | 0.0 | 0.0 | 0.00 | 0.00 | 0.00 | 75 | 1021.4 |
| 20260505082243 | 50 | 193 | 0.9 | 3.5 | 0.00 | 0.00 | 0.00 | 74 | 1021.4 |
| 20260505075328 | 50 | 193 | 0.9 | 3.5 | 0.00 | 0.00 | 0.00 | 73 | 1021.6 |
| 20260505074427 | 50 | 227 | 0.0 | 0.9 | 0.00 | 0.00 | 0.00 | 73 | 1021.6 |
| 20260505073427 | 50 | 183 | 0.9 | 4.3 | 0.00 | 0.00 | 0.00 | 72 | 1021.6 |
| 20260505072427 | 51 | 227 | 0.0 | 0.9 | 0.00 | 0.00 | 0.00 | 72 | 1021.6 |
| 20260505071429 | 51 | 193 | 0.0 | 3.5 | 0.00 | 0.00 | 0.00 | 71 | 1021.6 |
| 20260505070445 | 51 | 196 | 0.9 | 7.0 | 0.00 | 0.00 | 0.00 | 71 | 1021.5 |
| 20260505065527 | 51 | 211 | 0.0 | 2.6 | 0.00 | 0.00 | 0.00 | 72 | 1021.4 |
| 20260505064527 | 51 | 219 | 0.9 | 4.3 | 0.00 | 0.00 | 0.00 | 71 | 1021.4 |
| 20260505061526 | 51 | 187 | 0.0 | 1.7 | 0.00 | 0.00 | 0.00 | 69 | 1021.5 |
| 20260505060530 | 51 | 181 | 0.0 | 1.7 | 0.00 | 0.00 | 0.00 | 70 | 1021.4 |
| 20260505055528 | 51 | 185 | 0.9 | 3.5 | 0.00 | 0.00 | 0.00 | 69 | 1021.5 |
| 20260505053528 | 51 | 194 | 2.6 | 4.3 | 0.00 | 0.00 | 0.00 | 68 | 1021.5 |
| 20260505052526 | 51 | 190 | 0.9 | 3.5 | 0.00 | 0.00 | 0.00 | 68 | 1021.4 |
| 20260505040928 | 50 | 190 | 0.9 | 3.5 | 0.00 | 0.00 | 0.00 | 65 | 1021.9 |
| 20260505035941 | 50 | 179 | 0.9 | 4.3 | 0.00 | 0.00 | 0.00 | 64 | 1022.1 |
| 20260505033123 | 50 | 200 | 2.6 | 8.7 | 0.00 | 0.00 | 0.00 | 63 | 1022.1 |
| 20260505032124 | 50 | 198 | 0.9 | 2.6 | 0.00 | 0.00 | 0.00 | 62 | 1022.0 |
| 20260505031125 | 51 | 191 | 2.6 | 4.3 | 0.00 | 0.00 | 0.00 | 61 | 1022.1 |
| 20260505025224 | 51 | 187 | 3.5 | 6.1 | 0.00 | 0.00 | 0.00 | 61 | 1022.0 |
| 20260505024225 | 51 | 192 | 2.6 | 4.3 | 0.00 | 0.00 | 0.00 | 61 | 1022.1 |
| 20260505023323 | 51 | 195 | 3.5 | 7.8 | 0.00 | 0.00 | 0.00 | 59 | 1022.1 |
| 20260505022342 | 51 | 199 | 3.5 | 10.4 | 0.00 | 0.00 | 0.00 | 59 | 1022.1 |
| 20260505021424 | 51 | 190 | 3.5 | 4.3 | 0.00 | 0.00 | 0.00 | 59 | 1022.1 |
| 20260505020522 | 51 | 186 | 2.6 | 7.0 | 0.00 | 0.00 | 0.00 | 58 | 1022.1 |
| 20260505015525 | 51 | 189 | 3.5 | 7.8 | 0.00 | 0.00 | 0.00 | 59 | 1022.1 |
| 20260505014524 | 51 | 191 | 0.9 | 3.5 | 0.00 | 0.00 | 0.00 | 59 | 1021.9 |
| 20260505012523 | 51 | 192 | 2.6 | 5.2 | 0.00 | 0.00 | 0.00 | 58 | 1021.7 |
| 20260505011523 | 51 | 188 | 0.9 | 5.2 | 0.00 | 0.00 | 0.00 | 57 | 1021.6 |
| 20260505010622 | 51 | 192 | 2.6 | 5.2 | 0.00 | 0.00 | 0.00 | 56 | 1021.3 |
| 20260505005624 | 51 | 182 | 3.5 | 7.0 | 0.00 | 0.00 | 0.00 | 57 | 1021.4 |
| 20260505005524 | 51 | 197 | 1.7 | 3.5 | 0.00 | 0.00 | 0.00 | 57 | 1021.4 |
| 20260505003622 | 51 | 189 | 0.9 | 2.6 | 0.00 | 0.00 | 0.00 | 56 | 1021.0 |
| 20260505002625 | 51 | 194 | 2.6 | 5.2 | 0.00 | 0.00 | 0.00 | 56 | 1020.8 |
| 20260505001624 | 51 | 187 | 3.5 | 7.0 | 0.00 | 0.00 | 0.00 | 55 | 1020.7 |
| 20260505000624 | 51 | 196 | 3.5 | 8.7 | 0.00 | 0.00 | 0.00 | 55 | 1020.4 |
| 20260504235624 | 51 | 192 | 1.7 | 3.5 | 0.00 | 0.00 | 0.00 | 55 | 1020.5 |
| 20260504234623 | 51 | 194 | 2.6 | 6.1 | 0.00 | 0.00 | 0.00 | 54 | 1020.3 |
| 20260504233623 | 52 | 190 | 3.5 | 7.8 | 0.00 | 0.00 | 0.00 | 55 | 1020.4 |
| 20260504232623 | 52 | 190 | 1.7 | 3.5 | 0.00 | 0.00 | 0.00 | 55 | 1020.4 |
| 20260504231722 | 52 | 196 | 4.3 | 8.7 | 0.00 | 0.00 | 0.00 | 53 | 1020.3 |
| 20260504230740 | 53 | 193 | 2.6 | 9.6 | 0.00 | 0.00 | 0.00 | 53 | 1020.3 |
| 20260504225825 | 53 | 194 | 2.6 | 5.2 | 0.00 | 0.00 | 0.00 | 54 | 1020.1 |
| 20260504224842 | 54 | 192 | 2.6 | 5.2 | 0.00 | 0.00 | 0.00 | 54 | 1020.1 |
| 20260504223924 | 54 | 194 | 1.7 | 3.5 | 0.00 | 0.00 | 0.00 | 54 | 1020.2 |
| 20260504222922 | 55 | 183 | 4.3 | 8.7 | 0.00 | 0.00 | 0.00 | 54 | 1020.0 |
| 20260504221022 | 57 | 191 | 2.6 | 6.1 | 0.00 | 0.00 | 0.00 | 53 | 1020.0 |
| 20260504220023 | 58 | 195 | 3.5 | 6.1 | 0.00 | 0.00 | 0.00 | 53 | 1020.0 |
| 20260504215023 | 58 | 182 | 1.7 | 4.3 | 0.00 | 0.00 | 0.00 | 54 | 1020.0 |
| 20260504214024 | 58 | 188 | 3.5 | 12.2 | 0.00 | 0.00 | 0.00 | 54 | 1020.1 |
| 20260504212140 | 58 | 191 | 2.6 | 7.0 | 0.00 | 0.00 | 0.00 | 53 | 1020.0 |
| 20260504211222 | 59 | 189 | 2.6 | 6.1 | 0.00 | 0.00 | 0.00 | 54 | 1020.2 |
| 20260504210224 | 59 | 191 | 0.9 | 3.5 | 0.00 | 0.00 | 0.00 | 53 | 1020.1 |
| 20260504204323 | 59 | 185 | 4.3 | 9.6 | 0.00 | 0.00 | 0.00 | 54 | 1020.0 |
| 20260504203323 | 60 | 193 | 4.3 | 7.0 | 0.00 | 0.00 | 0.00 | 55 | 1019.9 |
| 20260504202340 | 60 | 186 | 2.6 | 4.3 | 0.00 | 0.00 | 0.00 | 55 | 1019.9 |
| 20260504201423 | 61 | 194 | 4.3 | 13.9 | 0.00 | 0.00 | 0.00 | 54 | 1019.8 |
| 20260504200439 | 61 | 193 | 2.6 | 11.3 | 0.00 | 0.00 | 0.00 | 54 | 1019.9 |
| 20260504195423 | 61 | 189 | 4.3 | 11.3 | 0.00 | 0.00 | 0.00 | 54 | 1019.9 |
| 20260504194424 | 62 | 185 | 2.6 | 7.8 | 0.00 | 0.00 | 0.00 | 56 | 1020.0 |
| 20260504193523 | 63 | 197 | 2.6 | 4.3 | 0.00 | 0.00 | 0.00 | 56 | 1019.9 |
| 20260504192541 | 62 | 187 | 1.7 | 5.2 | 0.00 | 0.00 | 0.00 | 56 | 1020.0 |
| 20260504191624 | 61 | 191 | 5.2 | 9.6 | 0.00 | 0.00 | 0.00 | 56 | 1020.0 |
| 20260504185624 | 62 | 187 | 4.3 | 7.0 | 0.00 | 0.00 | 0.00 | 56 | 1020.1 |
| 20260504184624 | 61 | 188 | 4.3 | 11.3 | 0.00 | 0.00 | 0.00 | 57 | 1020.2 |
| 20260504183623 | 61 | 187 | 0.9 | 5.2 | 0.00 | 0.00 | 0.00 | 56 | 1020.2 |
| 20260504182642 | 61 | 181 | 5.2 | 8.7 | 0.00 | 0.00 | 0.00 | 57 | 1020.1 |
| 20260504181722 | 61 | 183 | 4.3 | 12.2 | 0.00 | 0.00 | 0.00 | 57 | 1020.2 |
| 20260504180722 | 61 | 191 | 4.3 | 8.7 | 0.00 | 0.00 | 0.00 | 57 | 1020.3 |
| 20260504175724 | 60 | 184 | 2.6 | 8.7 | 0.00 | 0.00 | 0.00 | 56 | 1020.4 |
| 20260504173822 | 60 | 184 | 4.3 | 9.6 | 0.00 | 0.00 | 0.00 | 57 | 1020.5 |
| 20260504172823 | 61 | 188 | 5.2 | 12.2 | 0.00 | 0.00 | 0.00 | 58 | 1020.4 |
| 20260504171824 | 59 | 182 | 3.5 | 7.8 | 0.00 | 0.00 | 0.00 | 58 | 1020.6 |
| 20260504170822 | 59 | 182 | 5.2 | 9.6 | 0.00 | 0.00 | 0.00 | 57 | 1020.7 |
| 20260504151025 | 61 | 190 | 2.6 | 6.1 | 0.00 | 0.00 | 0.00 | 61 | 1021.1 |
| 20260504141142 | 60 | 181 | 1.7 | 4.3 | 0.00 | 0.00 | 0.00 | 63 | 1021.4 |
| 20260504140222 | 60 | 180 | 2.6 | 6.1 | 0.00 | 0.00 | 0.00 | 62 | 1021.5 |
| 20260504130225 | 58 | 186 | 0.0 | 2.6 | 0.00 | 0.00 | 0.00 | 64 | 1021.4 |
| 20260504120124 | 56 | 180 | 0.9 | 3.5 | 0.00 | 0.00 | 0.00 | 64 | 1021.6 |
| 20260504110323 | 52 | 174 | 0.0 | 3.5 | 0.00 | 0.00 | 0.00 | 61 | 1021.6 |